Regional Weather Roundup
Issued by NWS Cleveland, OH

Current Version | Previous Version | Text Only | Print | Product List | Glossary On
Versions: 1 2 3 4 5 6 7 8 9 10 11 12 13 14 15 16 17 18 19 20 21 22 23 24 25 26 27 28 29 30 31 32 33 34 35 36 37 38 39 40 41 42 43 44 45 46 47 48 49 50
000 ASUS41 KCLE 202010 RWRCLE OHIO REGIONAL WEATHER ROUNDUP NATIONAL WEATHER SERVICE WILMINGTON, OH 400 PM EDT WED AUG 20 2014 NOTE: "FAIR" INDICATES FEW OR NO CLOUDS BELOW 12,000 FEET WITH NO SIGNIFICANT WEATHER AND/OR OBSTRUCTIONS TO VISIBILITY. OHZ001>008-015>018-024>027-034-035-043-044-202100- NORTHWEST OHIO CITY SKY/WX TMP DP RH WIND PRES REMARKS DEFIANCE MOSUNNY 84 65 52 VRB6 29.91F FINDLAY MOSUNNY 85 64 49 W20G26 29.91F TOLEDO EXPRESS CLOUDY 81 66 60 W15 29.90S TOLEDO METCALF PTSUNNY 84 64 50 SW20G26 29.90F LIMA MOSUNNY 82 66 58 W12G20 29.94F $$ OHZ009>014-019>023-028>033-038-089-202100- NORTHEAST OHIO CITY SKY/WX TMP DP RH WIND PRES REMARKS CLE-HOPKINS PTSUNNY 82 67 60 W13 29.91S CLE-LAKEFRONT PTSUNNY 79 69 71 VRB5 29.88R CUY CO. ARPT PTSUNNY 79 72 78 SW14 29.91S LORAIN-ELYRIA SUNNY 84 68 58 W15 29.90F ASHTABULA PTSUNNY 71 68 90 E7 29.91F AKRON-CANTON PTSUNNY 78 67 68 SW9 29.93S WOOSTER MOSUNNY 77 69 76 W9 29.94S MANSFIELD MOSUNNY 82 65 56 W14G22 29.94F YOUNGSTOWN CLOUDY 78 67 68 SW10 29.93S $$ OHZ042-051>053-060>062-070>072-077>081-202100- SOUTHWEST OHIO CITY SKY/WX TMP DP RH WIND PRES REMARKS CINC-COVINGTON CLOUDY 83 68 60 W9 29.98S CINC-LUNKEN PTSUNNY 85 65 51 W14 29.96S HAMILTON CLOUDY 85 67 54 W9G21 29.98R DAYTON PTSUNNY 87 63 44 W16G22 29.97F WRIGHT-PAT AFB MOSUNNY 86 65 48 W14 29.95F DAYTON GENERAL PTSUNNY 85 64 49 W13 29.97S WILMINGTON MOSUNNY 85 64 49 W15 29.96F $$ OHZ036-037-039>041-045>050-054>059-063>069-073>076-082>088-202100- CENTRAL AND SOUTHEAST OHIO CITY SKY/WX TMP DP RH WIND PRES REMARKS COLUMBUS MOSUNNY 89 63 41 W13 29.92F HX 90 OSU AIRPORT MOSUNNY 86 65 49 SW16 29.93F BOLTON FIELD PTSUNNY 82 70 65 W10 29.95F RICKENBACK AFB PTSUNNY 88 60 38 W10 29.93F NEWARK PTSUNNY 82 68 62 VRB5 29.92F MARION MOSUNNY 84 65 52 W15G22 29.93F LANCASTER SUNNY 85 66 53 W10 29.94F ZANESVILLE MOSUNNY 84 66 54 W10 29.94F NEW PHILLY MOSUNNY 80 69 69 W8 29.94S $$

USA.gov is the U.S. government's official web portal to all federal, state and local government web resources and services.